Train No Train Name From To Distance Stops avg_speed (km/hr)
11123 Barauni - Gwalior Mail Barauni Junction Gwalior 1056 47 40
A Train's "Departure" Station, "Arrival" Station and "Distance" may vary. Although we have verified some of this data from enquiry.indianrail.gov.in
Train No Start Date (yyyy-mm-dd) Status Delay Time Source
11123 2017-01-07 Late 08 hours 15 minutes Source
11123 2017-01-08 Late 07 hours 20 minutes Source
11123 2017-01-09 Late 08 hours 20 minutes Source
11123 2017-01-13 Late 09 hours 24 minutes Source
11123 2017-01-16 Late 08 hours 10 minutes Source
11123 2017-01-18 Late 08 hours 15 minutes Source
11123 2017-01-20 Late 08 hours 10 minutes Source
11123 2017-01-27 Late 05 hours 07 minutes Source
11123 2017-02-01 Late 09 hours 50 minutes Source
11123 2017-02-08 Late 07 hours 41 minutes Source
11123 2017-02-10 Late 06 hours 10 minutes Source
11123 2017-02-13 Late 09 hours 16 minutes Source
11123 2017-02-19 Late 06 hours 07 minutes Source
11123 2017-02-26 Late 05 hours 00 minutes Source
11123 2017-02-27 Late 07 hours 02 minutes Source
11123 2017-03-01 Late 06 hours 45 minutes Source
11123 2017-03-02 Late 08 hours 07 minutes Source
11123 2017-03-03 Late 07 hours 05 minutes Source
11123 2017-03-06 Late 08 hours 10 minutes Source
11123 2017-03-07 Late 05 hours 00 minutes Source
Page 1 of 1, showing 20 records out of 20 total